| time (UTC) | temp F | wind direction | speed knots | gust knots | rain 1hr in | rain 24hr in | rain mn in | humidity % | barometer mb |
| 20260506103316 | 63 | 99 | 3.5 | 12.2 | 0.00 | 0.02 | 0.00 | 52 | 1008.0 |
| 20260506100915 | 62 | 68 | 9.6 | 11.3 | 0.00 | 0.02 | 0.00 | 53 | 1008.0 |
| 20260506095715 | 62 | 76 | 5.2 | 12.2 | 0.00 | 0.02 | 0.00 | 52 | 1009.0 |
| 20260506094514 | 62 | 76 | 5.2 | 12.2 | 0.00 | 0.02 | 0.00 | 52 | 1009.0 |
| 20260506093314 | 61 | 71 | 7.0 | 9.6 | 0.00 | 0.02 | 0.00 | 53 | 1009.0 |
| 20260506092115 | 62 | 90 | 5.2 | 10.4 | 0.00 | 0.02 | 0.00 | 53 | 1009.0 |
| 20260506090914 | 61 | 58 | 7.8 | 11.3 | 0.00 | 0.02 | 0.00 | 49 | 1009.0 |
| 20260506085714 | 61 | 66 | 6.1 | 10.4 | 0.00 | 0.02 | 0.00 | 48 | 1008.0 |
| 20260506084515 | 62 | 74 | 6.1 | 12.2 | 0.00 | 0.02 | 0.00 | 48 | 1008.0 |
| 20260506083314 | 62 | 75 | 8.7 | 10.4 | 0.00 | 0.02 | 0.00 | 52 | 1009.0 |
| 20260506082114 | 61 | 121 | 8.7 | 8.7 | 0.00 | 0.02 | 0.00 | 52 | 1009.0 |
| 20260506080914 | 60 | 66 | 5.2 | 9.6 | 0.00 | 0.02 | 0.00 | 59 | 1009.0 |
| 20260506073316 | 57 | 55 | 4.3 | 6.1 | 0.00 | 0.02 | 0.00 | 70 | 1009.0 |
| 20260506072116 | 56 | 67 | 5.2 | 5.2 | 0.00 | 0.02 | 0.00 | 76 | 1009.0 |
| 20260506070916 | 55 | 76 | 4.3 | 5.2 | 0.00 | 0.02 | 0.00 | 88 | 1009.0 |
| 20260506062115 | 52 | 82 | 0.9 | 1.7 | 0.00 | 0.02 | 0.02 | 94 | 1009.0 |
| 20260506060917 | 51 | 129 | 0.9 | 1.7 | 0.00 | 0.02 | 0.02 | 94 | 1009.0 |
| 20260506050915 | 49 | 279 | 1.7 | 2.6 | 0.00 | 0.02 | 0.02 | 94 | 1009.0 |
| 20260506044515 | 48 | 47 | 2.6 | 3.5 | 0.00 | 0.02 | 0.02 | 94 | 1010.0 |
| 20260506043316 | 49 | 52 | 2.6 | 4.3 | 0.00 | 0.02 | 0.02 | 94 | 1010.0 |
| 20260506042115 | 49 | 14 | 1.7 | 4.3 | 0.00 | 0.02 | 0.02 | 94 | 1010.0 |
| 20260506040915 | 49 | 291 | 2.6 | 4.3 | 0.00 | 0.02 | 0.02 | 93 | 1010.0 |
| 20260506035715 | 49 | 338 | 1.7 | 3.5 | 0.00 | 0.02 | 0.02 | 93 | 1010.0 |
| 20260506034515 | 49 | 338 | 1.7 | 3.5 | 0.00 | 0.02 | 0.02 | 93 | 1010.0 |
| 20260506033315 | 50 | 237 | 1.7 | 3.5 | 0.00 | 0.02 | 0.02 | 93 | 1010.0 |
| 20260506032115 | 51 | 251 | 3.5 | 3.5 | 0.00 | 0.02 | 0.02 | 92 | 1010.0 |
| 20260506030915 | 51 | 250 | 2.6 | 2.6 | 0.00 | 0.02 | 0.02 | 92 | 1010.0 |
| 20260506025716 | 52 | 250 | 1.7 | 2.6 | 0.00 | 0.02 | 0.02 | 91 | 1010.0 |
| 20260506024515 | 52 | 282 | 1.7 | 2.6 | 0.00 | 0.02 | 0.02 | 91 | 1010.0 |
| 20260506023315 | 52 | 269 | 3.5 | 4.3 | 0.00 | 0.02 | 0.02 | 91 | 1010.0 |
| 20260506022115 | 53 | 288 | 3.5 | 4.3 | 0.00 | 0.02 | 0.02 | 89 | 1010.0 |
| 20260506020915 | 54 | 273 | 2.6 | 3.5 | 0.00 | 0.02 | 0.02 | 85 | 1010.0 |
| 20260506015715 | 54 | 301 | 1.7 | 3.5 | 0.00 | 0.02 | 0.02 | 83 | 1010.0 |
| 20260506014515 | 54 | 278 | 1.7 | 1.7 | 0.00 | 0.02 | 0.02 | 83 | 1010.0 |
| 20260506013315 | 54 | 244 | 0.9 | 1.7 | 0.00 | 0.02 | 0.02 | 82 | 1010.0 |
| 20260506012115 | 54 | 327 | 0.9 | 1.7 | 0.00 | 0.02 | 0.02 | 80 | 1010.0 |
| 20260506010916 | 55 | 168 | 1.7 | 3.5 | 0.00 | 0.02 | 0.02 | 76 | 1010.0 |
| 20260506005715 | 55 | 173 | 1.7 | 3.5 | 0.00 | 0.02 | 0.02 | 76 | 1011.0 |
| 20260506004515 | 55 | 173 | 1.7 | 3.5 | 0.00 | 0.02 | 0.02 | 76 | 1011.0 |
| 20260506003315 | 55 | 181 | 4.3 | 5.2 | 0.00 | 0.02 | 0.02 | 80 | 1011.0 |
| 20260506002115 | 55 | 123 | 2.6 | 3.5 | 0.00 | 0.02 | 0.02 | 82 | 1011.0 |
| 20260506000915 | 55 | 225 | 2.6 | 4.3 | 0.00 | 0.02 | 0.02 | 82 | 1011.0 |
| 20260505235715 | 55 | 278 | 4.3 | 8.7 | 0.00 | 0.02 | 0.02 | 84 | 1011.0 |
| 20260505234515 | 55 | 278 | 4.3 | 8.7 | 0.00 | 0.02 | 0.02 | 84 | 1011.0 |
| 20260505233315 | 56 | 267 | 7.8 | 12.2 | 0.00 | 0.02 | 0.02 | 89 | 1010.0 |
| 20260505232115 | 56 | 267 | 7.8 | 12.2 | 0.00 | 0.02 | 0.02 | 89 | 1010.0 |
| 20260505230915 | 56 | 263 | 10.4 | 13.9 | 0.00 | 0.02 | 0.02 | 91 | 1010.0 |
| 20260505225715 | 55 | 270 | 11.3 | 13.9 | 0.00 | 0.02 | 0.02 | 91 | 1010.0 |
| 20260505224515 | 55 | 271 | 13.9 | 13.0 | 0.00 | 0.02 | 0.02 | 92 | 1010.0 |
| 20260505223315 | 55 | 249 | 8.7 | 11.3 | 0.00 | 0.02 | 0.02 | 93 | 1010.0 |
| 20260505222115 | 55 | 249 | 8.7 | 11.3 | 0.00 | 0.02 | 0.02 | 93 | 1010.0 |
| 20260505220916 | 55 | 262 | 7.8 | 9.6 | 0.00 | 0.02 | 0.02 | 92 | 1010.0 |
| 20260505215715 | 55 | 248 | 7.8 | 10.4 | 0.00 | 0.02 | 0.02 | 92 | 1010.0 |
| 20260505214514 | 55 | 248 | 7.8 | 10.4 | 0.00 | 0.02 | 0.02 | 92 | 1010.0 |
| 20260505213315 | 54 | 257 | 10.4 | 12.2 | 0.00 | 0.02 | 0.02 | 94 | 1009.0 |
| 20260505212115 | 53 | 267 | 9.6 | 10.4 | 0.00 | 0.02 | 0.02 | 95 | 1009.0 |
| 20260505210915 | 53 | 234 | 3.5 | 5.2 | 0.00 | 0.02 | 0.02 | 94 | 1009.0 |
| 20260505205715 | 54 | 246 | 3.5 | 5.2 | 0.00 | 0.02 | 0.02 | 94 | 1008.0 |
| 20260505204515 | 54 | 246 | 3.5 | 5.2 | 0.00 | 0.02 | 0.02 | 94 | 1008.0 |
| 20260505203315 | 55 | 299 | 5.2 | 6.1 | 0.00 | 0.02 | 0.02 | 92 | 1008.0 |
| 20260505202115 | 56 | 282 | 5.2 | 5.2 | 0.00 | 0.02 | 0.02 | 92 | 1008.0 |
| 20260505200915 | 56 | 267 | 1.7 | 2.6 | 0.00 | 0.02 | 0.02 | 91 | 1008.0 |
| 20260505195715 | 56 | 256 | 0.9 | 3.5 | 0.00 | 0.02 | 0.02 | 91 | 1008.0 |
| 20260505194514 | 57 | 270 | 0.9 | 2.6 | 0.00 | 0.02 | 0.02 | 90 | 1008.0 |
| 20260505193314 | 57 | 195 | 0.9 | 2.6 | 0.00 | 0.02 | 0.02 | 90 | 1008.0 |
| 20260505192114 | 57 | 85 | 1.7 | 2.6 | 0.00 | 0.02 | 0.02 | 89 | 1008.0 |
| 20260505190915 | 58 | 48 | 2.6 | 2.6 | 0.00 | 0.02 | 0.02 | 83 | 1007.0 |
| 20260505185714 | 58 | 61 | 2.6 | 3.5 | 0.00 | 0.02 | 0.02 | 78 | 1007.0 |
| 20260505184514 | 58 | 220 | 2.6 | 5.2 | 0.00 | 0.02 | 0.02 | 81 | 1007.0 |
| 20260505183314 | 58 | 212 | 2.6 | 6.1 | 0.00 | 0.02 | 0.02 | 80 | 1007.0 |
| 20260505182115 | 58 | 253 | 6.1 | 7.0 | 0.00 | 0.02 | 0.02 | 79 | 1007.0 |
| 20260505180915 | 58 | 214 | 5.2 | 5.2 | 0.00 | 0.02 | 0.02 | 78 | 1007.0 |
| 20260505175714 | 58 | 268 | 3.5 | 9.6 | 0.02 | 0.02 | 0.02 | 84 | 1007.0 |
| 20260505174514 | 58 | 268 | 3.5 | 9.6 | 0.02 | 0.02 | 0.02 | 84 | 1007.0 |
| 20260505173314 | 58 | 281 | 6.1 | 13.0 | 0.01 | 0.01 | 0.01 | 87 | 1008.0 |
| 20260505172114 | 59 | 260 | 12.2 | 23.5 | 0.00 | 0.00 | 0.00 | 74 | 1008.0 |
| 20260505170914 | 62 | 253 | 20.0 | 28.7 | 0.00 | 0.00 | 0.00 | 59 | 1008.0 |
| 20260505165715 | 67 | 241 | 18.2 | 29.5 | 0.00 | 0.00 | 0.00 | 44 | 1007.0 |
| 20260505164514 | 71 | 251 | 18.2 | 18.2 | 0.00 | 0.00 | 0.00 | 35 | 1006.0 |
| 20260505163314 | 72 | 100 | 3.5 | 11.3 | 0.00 | 0.00 | 0.00 | 28 | 1006.0 |
| 20260505162114 | 73 | 132 | 5.2 | 6.1 | 0.00 | 0.00 | 0.00 | 27 | 1006.0 |
| 20260505160914 | 74 | 76 | 3.5 | 4.3 | 0.00 | 0.00 | 0.00 | 27 | 1006.0 |
| 20260505153314 | 74 | 14 | 2.6 | 3.5 | 0.00 | 0.00 | 0.00 | 25 | 1006.0 |
| 20260505152114 | 74 | 61 | 3.5 | 5.2 | 0.00 | 0.00 | 0.00 | 25 | 1006.0 |
| 20260505150915 | 74 | 82 | 6.1 | 9.6 | 0.00 | 0.00 | 0.00 | 26 | 1006.0 |
| 20260505124515 | 76 | 96 | 3.5 | 13.0 | 0.00 | 0.00 | 0.00 | 20 | 1008.0 |
| 20260505123315 | 76 | 50 | 7.0 | 7.8 | 0.00 | 0.00 | 0.00 | 21 | 1008.0 |
| 20260505122115 | 76 | 59 | 3.5 | 8.7 | 0.00 | 0.00 | 0.00 | 20 | 1008.0 |
| 20260505120915 | 75 | 145 | 1.7 | 7.0 | 0.00 | 0.00 | 0.00 | 17 | 1008.0 |
| 20260505115715 | 75 | 190 | 4.3 | 7.8 | 0.00 | 0.00 | 0.00 | 16 | 1008.0 |
| 20260505114515 | 76 | 178 | 7.8 | 7.8 | 0.00 | 0.00 | 0.00 | 15 | 1008.0 |
| 20260505113315 | 77 | 254 | 4.3 | 5.2 | 0.00 | 0.00 | 0.00 | 16 | 1008.0 |
| 20260505112115 | 76 | 263 | 2.6 | 5.2 | 0.00 | 0.00 | 0.00 | 18 | 1008.0 |
| 20260505110915 | 75 | 297 | 3.5 | 6.1 | 0.00 | 0.00 | 0.00 | 20 | 1009.0 |